HA8LNU Weather Reports


time (UTC)temp
C
wind
direction
speed
KPH
gust
KPH
rain 1hr
cm
rain 24hr
cm
rain mn
cm
humidity
%
barometer
mb
20260504221036 8 0.0 0.0 0.00 0.00 0.00 72 1017.5
20260504220034 8 0.0 0.0 0.00 0.00 0.00 71 1017.5
20260504215032 8 0.0 0.0 0.00 0.00 0.00 71 1017.6
20260504214030 8 0.0 0.0 0.00 0.00 0.00 70 1017.5
20260504213028 8 0.0 0.0 0.00 0.00 0.00 70 1017.4
20260504212026 9 0.0 0.0 0.00 0.00 0.00 68 1017.5
20260504211023 9 0.0 0.0 0.00 0.00 0.00 67 1017.5
20260504210021 9 0.0 0.0 0.00 0.00 0.00 66 1017.6
20260504205020 10 0.0 0.0 0.00 0.00 0.00 64 1017.4
20260504204017 10 0.0 0.0 0.00 0.00 0.00 63 1017.4
20260504203015 10 0.0 0.0 0.00 0.00 0.00 62 1017.3
20260504202113 10 0.0 0.0 0.00 0.00 0.00 61 1017.4
20260504201111 11 0.0 0.0 0.00 0.00 0.00 61 1017.3
20260504200109 11 0.0 0.0 0.00 0.00 0.00 60 1017.3
20260504195107 11 0.0 0.0 0.00 0.00 0.00 60 1017.3
20260504194125 11 0.0 0.0 0.00 0.00 0.00 59 1017.3
20260504193123 11 0.0 0.0 0.00 0.00 0.00 56 1017.3
20260504192120 12 0.0 0.0 0.00 0.00 0.00 55 1017.3
20260504191059 12 0.0 0.0 0.00 0.00 0.00 50 1017.4
20260504190056 13 0.0 0.0 0.00 0.00 0.00 50 1017.4
20260504185054 13 0.0 0.0 0.00 0.00 0.00 50 1017.4
20260504184052 13 0.0 0.0 0.00 0.00 0.00 48 1017.3
20260504183110 14 0.0 0.0 0.00 0.00 0.00 48 1017.2
20260504182048 15 0.0 0.0 0.00 0.00 0.00 46 1017.2
20260504181046 15 0.0 0.0 0.00 0.00 0.00 43 1017.0
20260504180144 16 0.0 0.0 0.00 0.00 0.00 41 1017.0
20260504175042 17 0.0 0.0 0.00 0.00 0.00 39 1017.0
20260504174059 18 0.0 0.0 0.00 0.00 0.00 34 1017.0
20260504173037 19 0.0 0.0 0.00 0.00 0.00 31 1016.9
20260504172035 20 0.0 0.0 0.00 0.00 0.00 30 1016.8
20260504171033 21 0.0 0.0 0.00 0.00 0.00 27 1016.8
20260504151108 27 251 1.6 3.2 0.00 0.00 0.00 20 1017.3
20260504150126 27 135 0.0 6.4 0.00 0.00 0.00 20 1017.4
20260504141055 28 206 1.6 6.4 0.00 0.00 0.00 14 1017.7
20260504100123 26 1 3.2 6.4 0.00 0.00 0.00 21 1020.9
20260504081039 22 338 3.2 4.8 0.00 0.00 0.00 26 1021.5
20260504060113 13 206 1.6 3.2 0.00 0.00 0.00 54 1021.7
20260504045058 7 180 0.0 3.2 0.00 0.00 0.00 79 1021.3
20260504044056 6 0.0 0.0 0.00 0.00 0.00 84 1021.1
20260504043053 5 0.0 1.6 0.00 0.00 0.00 87 1021.2
20260504042051 5 0.0 1.6 0.00 0.00 0.00 89 1021.2
20260504041109 4 0.0 0.0 0.00 0.00 0.00 90 1021.1
20260504040047 3 0.0 0.0 0.00 0.00 0.00 89 1021.2
20260504035045 3 0.0 1.6 0.00 0.00 0.00 89 1021.0
20260504034043 3 0.0 0.0 0.00 0.00 0.00 88 1021.0
20260504033041 3 0.0 0.0 0.00 0.00 0.00 87 1020.7
20260504032038 3 0.0 0.0 0.00 0.00 0.00 87 1020.7
20260504031056 3 0.0 0.0 0.00 0.00 0.00 87 1020.9
20260504030034 3 0.0 0.0 0.00 0.00 0.00 86 1020.9
20260504025032 3 0.0 0.0 0.00 0.00 0.00 86 1020.8
20260504024030 3 0.0 0.0 0.00 0.00 0.00 86 1020.7
20260504023028 3 0.0 0.0 0.00 0.00 0.00 85 1020.6
20260504022026 3 0.0 0.0 0.00 0.00 0.00 85 1020.6
20260504021024 3 0.0 0.0 0.00 0.00 0.00 84 1020.7
20260504020022 3 0.0 0.0 0.00 0.00 0.00 83 1020.7
20260504015020 3 0.0 0.0 0.00 0.00 0.00 83 1020.8
20260504014038 3 0.0 0.0 0.00 0.00 0.00 83 1020.5
20260504013015 4 0.0 0.0 0.00 0.00 0.00 83 1020.8
20260504012114 4 0.0 0.0 0.00 0.00 0.00 82 1020.7
20260504011111 4 0.0 0.0 0.00 0.00 0.00 82 1020.6
20260504010109 4 0.0 0.0 0.00 0.00 0.00 81 1020.7
20260504005107 4 0.0 0.0 0.00 0.00 0.00 81 1020.8
20260504004105 5 0.0 0.0 0.00 0.00 0.00 80 1020.6
20260504003103 5 0.0 0.0 0.00 0.00 0.00 80 1020.6
20260504002121 5 0.0 0.0 0.00 0.00 0.00 80 1020.7
20260504001059 5 0.0 0.0 0.00 0.00 0.00 80 1020.7
20260504000057 5 0.0 0.0 0.00 0.00 0.00 80 1020.9
20260503235054 5 0.0 0.0 0.00 0.00 0.00 79 1020.9
20260503234053 5 0.0 0.0 0.00 0.00 0.00 78 1020.8
20260503233050 5 0.0 0.0 0.00 0.00 0.00 77 1020.7
20260503232048 6 0.0 0.0 0.00 0.00 0.00 75 1020.8
20260503231106 6 0.0 0.0 0.00 0.00 0.00 74 1020.7
20260503230044 6 0.0 0.0 0.00 0.00 0.00 74 1020.7
20260503225042 6 0.0 0.0 0.00 0.00 0.00 73 1020.6
20260503224039 6 0.0 0.0 0.00 0.00 0.00 73 1020.5
20260503223038 6 0.0 0.0 0.00 0.00 0.00 72 1020.7
20260503222036 6 0.0 0.0 0.00 0.00 0.00 73 1020.6